Overview Statistics Trail Chart Weather Telemetry Raw packets
 

This is the latest recevied weather packets stored in our database for station/object 4S6DRJ-13. If no packets are shown the sender has not sent any weather packets the latest 10 day(s).

<< 491 492 493 494 495 496 497 >>
Time Temp. Humidity Pressure Rain* Wind** Luminosity Snow
1787701519 27.22° C 88% 1010.1 hPa 0 mm 0 m/s 0 W/m² -
1787701458 27.22° C 88% 1010 hPa 0 mm 0.45 m/s, 240° 0 W/m² -
1787701397 27.22° C 88% 1009.9 hPa 0 mm 0.45 m/s, 240° 0 W/m² -
1787701336 27.22° C 88% 1009.9 hPa 0 mm 0.89 m/s, 226° 0 W/m² -
1787701275 27.22° C 88% 1010 hPa 0 mm 1.79 m/s, 237° 0 W/m² -
1787701214 27.22° C 88% 1010.1 hPa 0 mm 1.34 m/s, 296° 0 W/m² -
1787701153 27.22° C 88% 1010.1 hPa 0 mm 0 m/s 0 W/m² -
1787701092 26.67° C 88% 1010 hPa 0 mm 0.89 m/s, 261° 0 W/m² -
1787701031 26.67° C 88% 1010.1 hPa 0 mm 1.34 m/s, 211° 0 W/m² -
1787700970 26.67° C 88% 1010 hPa 0 mm 0 m/s 0 W/m² -
1787700909 26.67° C 88% 1010.2 hPa 0 mm 0.45 m/s, 214° 0 W/m² -
1787700848 26.67° C 88% 1010 hPa 0 mm 0.45 m/s, 201° 0 W/m² -
1787700787 26.67° C 88% 1010 hPa 0 mm 0.45 m/s, 228° 0 W/m² -
1787700727 26.67° C 88% 1010.2 hPa 0 mm 0.89 m/s, 216° 0 W/m² -
1787700665 26.67° C 88% 1010.1 hPa 0 mm 0.89 m/s, 261° 0 W/m² -
1787700605 26.67° C 88% 1010.1 hPa 0 mm 0.89 m/s, 237° 0 W/m² -
1787700483 26.67° C 88% 1010.2 hPa 0 mm 0.45 m/s, 180° 0 W/m² -
1787700421 26.67° C 88% 1010.1 hPa 0 mm 0 m/s 0 W/m² -
1787700360 26.67° C 88% 1010 hPa 0 mm 0.45 m/s, 224° 0 W/m² -
1787700299 26.67° C 88% 1010.3 hPa 0 mm 1.34 m/s, 237° 0 W/m² -
1787700238 26.67° C 88% 1010.2 hPa 0 mm 0.45 m/s, 222° 0 W/m² -
1787700177 26.67° C 89% 1010.2 hPa 0 mm 0.89 m/s, 227° 0 W/m² -
1787700116 26.67° C 89% 1010.2 hPa 0 mm 0.89 m/s, 207° 0 W/m² -
1787700055 26.67° C 89% 1010.1 hPa 0 mm 0.45 m/s, 234° 0 W/m² -
1787699994 26.67° C 89% 1010.2 hPa 0 mm 0.89 m/s, 197° 0 W/m² -

* Rain latest hour (hover to see other rain measurements)
** Current wind speed in m/s (hover to see current wind gust speed)